Location: Newark
(43.0275°N, 0.5708°E)
Time: 20:31:48
(UTC+00:00)

OTV 5 (USA 277) - Pass Details

Date: 01 November 2019
Orbit: 310 x 324 km, 54.5° (Epoch: 17 October)

Event Time Altitude Azimuth Distance (km) Brightness Sun altitude
Rises 17:59:01 0° 253° (WSW) 2,053 ? -13.0°
Reaches altitude 10° 18:01:06 10° 265° (W) 1,228 ? -13.4°
Maximum altitude 18:03:33 30° 329° (NNW) 618 ? -13.9°
Enters shadow 18:05:08 17° 22° (NNE) 921 ? -14.1°
